This is the latest recevied weather packets stored in our database for station/object RV1CJ-14. If no packets are shown the sender has not sent any weather packets the latest 10 day(s).
| Time | Temp. | Humidity | Pressure | Rain* | Wind** | Luminosity | Snow |
|---|---|---|---|---|---|---|---|
| 1777714203 | 19.44° C | 51% | 1007.5 hPa | 0 mm | - | 647 W/m² | - |
| 1777713603 | 19.44° C | 51% | 1007.7 hPa | 0 mm | - | 756 W/m² | - |
| 1777713003 | 19.44° C | 52% | 1007.7 hPa | 0 mm | - | 754 W/m² | - |
| 1777712403 | 18.89° C | 52% | 1007.8 hPa | 0 mm | - | 686 W/m² | - |
| 1777711804 | 18.33° C | 52% | 1007.9 hPa | 0 mm | - | 745 W/m² | - |
| 1777711203 | 18.89° C | 53% | 1008 hPa | 0 mm | - | 751 W/m² | - |
| 1777710603 | 18.33° C | 53% | 1008 hPa | 0 mm | - | 747 W/m² | - |
| 1777710003 | 17.78° C | 55% | 1008.2 hPa | 0 mm | - | 744 W/m² | - |
| 1777709403 | 17.22° C | 56% | 1008.3 hPa | 0 mm | - | 728 W/m² | - |
| 1777708804 | 17.22° C | 57% | 1008.3 hPa | 0 mm | - | 726 W/m² | - |
| 1777708203 | 17.22° C | 57% | 1008.5 hPa | 0 mm | - | 712 W/m² | - |
| 1777707603 | 16.67° C | 58% | 1008.7 hPa | 0 mm | - | 703 W/m² | - |
| 1777707003 | 16.67° C | 57% | 1008.6 hPa | 0 mm | - | 700 W/m² | - |
| 1777706403 | 16.67° C | 59% | 1008.8 hPa | 0 mm | - | 694 W/m² | - |
| 1777705804 | 16.11° C | 59% | 1008.8 hPa | 0 mm | - | 684 W/m² | - |
| 1777705203 | 15.56° C | 61% | 1008.8 hPa | 0 mm | - | 666 W/m² | - |
| 1777704603 | 15° C | 61% | 1008.9 hPa | 0 mm | - | 650 W/m² | - |
| 1777704004 | 14.44° C | 63% | 1008.9 hPa | 0 mm | - | 642 W/m² | - |
| 1777703403 | 14.44° C | 62% | 1008.9 hPa | 0 mm | - | 628 W/m² | - |
| 1777702803 | 13.33° C | 64% | 1009.2 hPa | 0 mm | - | 599 W/m² | - |
| 1777702203 | 13.33° C | 65% | 1009.3 hPa | 0 mm | - | 336 W/m² | - |
| 1777701603 | 12.78° C | 66% | 1009.4 hPa | 0 mm | - | 513 W/m² | - |
| 1777701003 | 12.22° C | 66% | 1009.3 hPa | 0 mm | - | 445 W/m² | - |
| 1777700403 | 12.22° C | 67% | 1009.3 hPa | 0 mm | - | 381 W/m² | - |
| 1777699804 | 12.22° C | 66% | 1009.3 hPa | 0 mm | - | 295 W/m² | - |
* Rain latest hour (hover to see other rain measurements)
** Current wind speed in m/s (hover to see current wind gust speed)